Home   Weather   Hiroshima   Past weeks
Flag for Japan

Past Weather in Hiroshima, Japan — Yesterday and Last 2 Weeks

Now
78 °F

Scattered clouds.


Feels Like: 80 °F
Forecast: 79 / 66 °F
Wind: 6 mph from Southeast

Location: Iwakuni Marine Corps Air Station

Current Time: Jun 20, 2019 at 2:16:34 pm

Latest Report: Jun 20, 2019 at 12:55 pm


Visibility: N/A

Pressure: 29.71 "Hg

Humidity: 71%

Dew Point: 68 °F

Location of HiroshimaLocation

Past Weather in Hiroshima — Graph

°F

Hiroshima Temperature Yesterday

Maximum temperature yesterday: 78 °F (at 1:55 pm)
Minimum temperature yesterday: 65 °F (at 4:55 am)
Average temperature yesterday: 72 °F

High & Low Weather Summary for the Past Weeks

 TemperatureHumidityPressure
High82 °F (Jun 6, 3:55 pm)96% (Jun 7, 6:55 am)29.96 "Hg (Jun 7, 6:55 am)
Low61 °F (Jun 17, 4:36 am)45% (Jun 16, 2:55 pm)29.29 "Hg (Jun 15, 2:41 pm)
Average71 °F71%29.72 "Hg
* Reported Jun 5 12:55 pm — Jun 20 12:55 pm, Hiroshima. Weather by CustomWeather, © 2019

Note: Actual official high and low records may vary slightly from our data, if they occured in-between our weather recording intervals... More about our weather records

Advertising

Hiroshima Weather History for the Previous 24 Hours

Scroll right to see more
 ConditionsComfort  
Time TempWeatherWind HumidityBarometerVisibility
12:55 pm
Thu, Jun 20
78 °FScattered clouds.6 mph71%29.71 "HgN/A
11:55 am77 °FPassing clouds.9 mph71%29.72 "HgN/A
10:55 am76 °FScattered clouds.8 mph69%29.73 "HgN/A
9:55 am75 °FScattered clouds.8 mph71%29.73 "Hg5 mi
8:55 am73 °FScattered clouds.5 mph76%29.74 "Hg5 mi
7:55 am73 °FScattered clouds.5 mph74%29.74 "Hg6 mi
6:55 am70 °FSunny.3 mph79%29.73 "Hg5 mi
5:55 am68 °FHaze.5 mph82%29.72 "Hg6 mi
4:55 am68 °FHaze.6 mph82%29.71 "Hg6 mi
3:55 am69 °FPassing clouds.5 mph81%29.70 "HgN/A
2:55 am69 °FPassing clouds.6 mph81%29.69 "HgN/A
1:55 am70 °FPassing clouds.6 mph79%29.69 "HgN/A
12:55 am70 °FPassing clouds.5 mph79%29.69 "HgN/A
11:55 pm
Wed, Jun 19
70 °FPassing clouds.6 mph84%29.70 "HgN/A
10:55 pm71 °FPassing clouds.3 mph81%29.70 "HgN/A
9:55 pm74 °FPassing clouds.6 mph67%29.69 "HgN/A
8:55 pm74 °FPassing clouds.3 mph74%29.68 "HgN/A
7:55 pm74 °FPartly cloudy.No wind76%29.67 "HgN/A
6:55 pm75 °FBroken clouds.3 mph76%29.67 "HgN/A
5:55 pm77 °FBroken clouds.3 mph69%29.65 "HgN/A
4:55 pm77 °FPartly sunny.6 mph60%29.65 "HgN/A
3:55 pm76 °FPartly sunny.7 mph64%29.67 "HgN/A
2:55 pm76 °FPartly sunny.9 mph69%29.67 "HgN/A
Weather by CustomWeather, © 2019

See weather overview